Terminal Aerodrome Forecast
Issued by NWS

Home | Current Version | Previous Version | Graphics & Text | Print | Product List | Glossary On
Versions: 1 2 3 4 5 6 7 8 9 10 11 12 13 14 15 16
610
FTUS43 KABR 211519 AAA
TAFPIR
TAF AMD
KPIR 211519Z 2115/2212 15019G27KT P6SM BKN045
     FM211800 15023G33KT P6SM SCT050
     FM220200 13015KT P6SM OVC025
     FM220900 13015KT P6SM VCSH OVC015=

USA.gov is the U.S. government's official web portal to all federal, state and local government web resources and services.